[[{"header":{"parameterUnit":"m.s-1","parameterCategory":1,"la1":30.2991,"la2":30.254,"lo1":-89.0895,"lo2":-89.0444,"dy":0.0017,"dx":0.0017,"nx":28,"ny":28,"refTime":"2023-10-21T03:00:00:Z","depth":0,"parameterNumber":2,"parameterNumberName":"U-component_of_WINDS"},"data":[0,0,0,0,0,0,0,0,0,0,0,0,0,0,0,0,0,0,0,0,0,0,0,0,0,0,0,0,0,0,0,0,0,0,0,0,0,0,0,0,0,0,0,0,0,0,0,0,0,0,0,0,0,0,0,0,0,0,-2.7536,-2.7536,0,-2.7484,-2.7484,-2.7483,-2.7361,-2.7358,-2.7356,-2.7353,-2.7303,-2.7304,-2.7305,0,0,0,0,0,0,0,0,0,0,0,0,0,-2.7535,-2.7536,-2.7536,-2.7536,-2.7535,-2.7484,-2.7484,-2.7483,-2.7361,-2.7358,-2.7355,-2.7352,-2.7303,-2.7304,-2.7305,0,0,0,0,0,0,0,0,0,0,0,0,0,-2.7515,-2.7536,-2.7537,-2.7468,-2.7461,-2.7485,-2.7484,-2.7483,-2.7362,-2.7358,-2.7354,-2.7351,-2.7302,-2.7304,-2.7305,-2.7391,0,0,-2.731,-2.7311,0,0,0,0,0,0,0,0,-2.7516,-2.7515,-2.7479,-2.7473,-2.7465,-2.7425,-2.7465,-2.7452,-2.7363,-2.74,-2.7353,-2.7349,-2.7347,-2.7345,-2.7343,-2.7389,-2.7387,-2.731,-2.7311,-2.7312,-2.7312,0,0,0,0,0,0,0,-2.7518,-2.7516,-2.7516,-2.7479,-2.747,-2.7442,-2.7435,-2.7462,-2.7396,-2.7396,-2.7387,-2.7383,-2.7343,-2.7342,-2.7341,-2.7386,-2.731,-2.7312,-2.7313,-2.7313,-2.7504,-2.7508,0,0,0,0,0,0,-2.7528,-2.7518,-2.7517,-2.7514,-2.7482,-2.7445,-2.7437,-2.7442,-2.7395,-2.7384,-2.7386,-2.7377,-2.7341,-2.734,-2.7339,-2.7439,-2.7312,-2.7313,-2.7314,-2.75,-2.7505,-2.7509,0,0,0,0,0,0,-2.7529,-2.7529,-2.752,-2.7514,-2.751,-2.7449,-2.7456,-2.7443,-2.7442,-2.7387,-2.7375,-2.7397,-2.7338,-2.7337,-2.738,-2.7435,-2.7314,-2.7315,-2.7495,-2.7501,-2.7507,-2.7638,0,0,0,0,0,0,-2.7529,-2.753,-2.7561,-2.7515,-2.7511,-2.756,-2.7459,-2.7445,-2.7445,-2.7433,-2.7395,-2.7385,-2.7335,-2.7378,-2.7382,-2.7435,-2.7317,-2.7489,-2.7498,-2.7505,-2.7629,-2.7648,-2.7665,0,0,0,0,0,-2.753,-2.76,-2.7563,-2.7564,-2.7548,-2.7564,-2.7561,-2.7502,-2.745,-2.7481,-2.7446,-2.7386,-2.7429,-2.7384,-2.7386,-2.7441,-2.7486,-2.7495,-2.7504,-2.762,-2.7644,-2.7664,0,0,0,0,0,0,-2.7654,-2.7593,-2.7551,-2.7608,-2.7592,-2.7543,-2.758,-2.7529,-2.7527,-2.7516,-2.7444,-2.7436,-2.749,-2.747,-2.7421,-2.7524,-2.7448,-2.7458,-2.7535,-2.7557,-2.7575,-2.7579,-2.7318,0,0,0,0,0,-2.7688,-2.7704,-2.765,-2.7706,-2.77,-2.7643,-2.7647,-2.7603,-2.7583,-2.7576,-2.7544,-2.7528,-2.7538,-2.7547,-2.7552,-2.7625,-2.7617,-2.7665,-2.7683,-2.7698,-2.7708,-2.7748,-2.7769,-2.754,-2.7539,-2.7539,0,0,-2.7758,-2.7727,-2.7742,-2.7731,-2.7713,-2.7733,-2.7637,-2.7662,-2.7677,-2.758,-2.7619,-2.7595,-2.7573,-2.7633,-2.7657,-2.7617,-2.777,-2.771,-2.7722,-2.7724,-2.776,-2.7781,-2.7801,-2.7546,-2.7545,-2.7544,0,0,-2.7897,-2.7874,-2.792,-2.7904,-2.7879,-2.784,-2.7851,-2.781,-2.7791,-2.7829,-2.7757,-2.7775,-2.7793,-2.7781,-2.7778,-2.7917,-2.7862,-2.7921,-2.8015,-2.8055,-2.8073,-2.8089,-2.8141,-2.816,-2.7931,-2.7931,-2.7931,0,-2.7988,-2.8015,-2.795,-2.798,-2.7979,-2.7892,-2.7939,-2.7927,-2.7905,-2.7907,-2.7863,-2.7886,-2.7865,-2.7921,-2.7956,-2.7955,-2.7968,-2.7925,-2.8076,-2.8091,-2.8104,-2.8153,-2.8172,-2.7938,-2.7938,-2.7937,-2.7936,0,-2.8129,-2.8149,-2.8189,-2.817,-2.8173,-2.8212,-2.8155,-2.8166,-2.8123,-2.809,-2.8132,-2.8104,-2.8104,-2.8114,-2.8072,-2.8166,-2.8142,-2.8088,-2.801,-2.8135,-2.8179,-2.8197,-2.7949,-2.7946,-2.7944,-2.7942,0,0,-2.8343,-2.829,-2.8306,-2.8298,-2.8264,-2.8279,-2.8316,-2.8315,-2.8328,-2.8316,-2.8346,-2.8365,-2.8316,-2.8312,-2.8268,-2.8303,-2.8418,-2.8245,-2.8243,-2.828,-2.8523,-2.8565,-2.8587,-2.8382,-2.8385,-2.8387,-2.8526,0,-2.8475,-2.8532,-2.8476,-2.8545,-2.8565,-2.8484,-2.8516,-2.8501,-2.8472,-2.8485,-2.8453,-2.8469,-2.8401,-2.8399,-2.8429,-2.8398,-2.8466,-2.8387,-2.8411,-2.8413,-2.842,-2.861,-2.8654,-2.8785,-2.8542,-2.8545,-2.8547,0,-2.8635,-2.8632,-2.8704,-2.8669,-2.8675,-2.8704,-2.8701,-2.8714,-2.8697,-2.8673,-2.8671,-2.8618,-2.8654,-2.8578,-2.8627,-2.8574,-2.8581,-2.8568,-2.8571,-2.8572,-2.8488,-2.8618,-2.8826,-2.8846,-2.8574,-2.8571,-2.857,0,-2.8787,-2.88,-2.8845,-2.8841,-2.88,-2.8824,-2.8808,-2.8786,-2.8791,-2.8789,-2.8792,-2.8795,-2.8797,-2.8801,-2.8752,-2.8701,-2.8809,-2.8728,-2.8792,-2.8794,-2.8819,-2.8818,-2.9033,-2.8822,-2.8821,-2.8821,-2.8821,0,-2.894,-2.8987,-2.8913,-2.8941,-2.8993,-2.8929,-2.8983,-2.8959,-2.8941,-2.8965,-2.8896,-2.892,-2.8852,-2.887,-2.8832,-2.888,-2.8881,-2.8865,-2.8855,-2.8872,-2.8874,-2.8876,-2.8866,-2.8826,-2.8825,-2.8824,-2.8823,0,-2.9117,-2.9069,-2.9113,-2.9073,-2.9064,-2.9104,-2.907,-2.9095,-2.9063,-2.9094,-2.9098,-2.9047,-2.9065,-2.9016,-2.9026,-2.9,-2.9071,-2.9045,-2.9077,-2.907,-2.9138,-2.9133,-2.9361,-2.9389,-2.916,-2.9162,-2.9164,0,-2.9219,-2.9253,-2.9217,-2.9228,-2.9216,-2.9234,-2.9239,-2.9179,-2.9187,-2.9172,-2.92,-2.9212,-2.9218,-2.9251,-2.9216,-2.9224,-2.9199,-2.9279,-2.9199,-2.9217,-2.9202,-2.9201,-2.9206,-2.9295,-2.9298,-2.93,-2.9302,0,-2.9404,-2.938,-2.9388,-2.9391,-2.9399,-2.9397,-2.9391,-2.9405,-2.9341,-2.9354,-2.9372,-2.9377,-2.9388,-2.9402,-2.9403,-2.9389,-2.9337,-2.9327,-2.9343,-2.9362,-2.938,-2.9373,-2.9123,-2.9322,-2.932,-2.9319,-2.9318,-2.9317,-2.9547,-2.9576,-2.9555,-2.9569,-2.9559,-2.9556,-2.9578,-2.9549,-2.9562,-2.9566,-2.9531,-2.9557,-2.9541,-2.9537,-2.9529,-2.955,-2.9513,-2.9536,-2.9542,-2.9548,-2.9561,-2.9376,-2.955,-2.9549,-2.9548,-2.9548,-2.9547,0,-2.9731,-2.9715,-2.9728,-2.9722,-2.9734,-2.9683,-2.9675,-2.9688,-2.9712,-2.9701,-2.9709,-2.9731,-2.9745,-2.9713,-2.9722,-2.9745,-2.9722,-2.975,-2.9748,-2.9747,-2.9591,-2.9578,-2.9769,-2.9769,-2.9769,-2.9769,-2.9769,-2.9769,-2.9828,-2.9874,-2.9848,-2.9889,-2.9872,-2.9896,-2.9897,-2.9895,-2.9886,-2.9914,-2.9925,-2.9903,-2.9885,-2.9894,-2.9905,-2.9895,-2.9903,-2.994,-2.9923,-2.9779,-2.9757,-2.9736,-2.9723,-2.9942,-2.9942,-3.0076,-3.0077,-3.0078]},{"header":{"parameterUnit":"m.s-1","parameterCategory":1,"la1":30.2991,"la2":30.254,"lo1":-89.0895,"lo2":-89.0444,"dy":0.0017,"dx":0.0017,"nx":28,"ny":28,"refTime":"2023-10-21T03:00:00:Z","depth":0,"parameterNumber":3,"parameterNumberName":"V-component_of_WINDS"},"data":[0,0,0,0,0,0,0,0,0,0,0,0,0,0,0,0,0,0,0,0,0,0,0,0,0,0,0,0,0,0,0,0,0,0,0,0,0,0,0,0,0,0,0,0,0,0,0,0,0,0,0,0,0,0,0,0,0,0,1.7598,1.7597,0,1.7535,1.7535,1.7534,1.7533,1.7533,1.7534,1.7535,1.7463,1.7461,1.7458,0,0,0,0,0,0,0,0,0,0,0,0,0,1.7711,1.7709,1.7598,1.7597,1.7597,1.7535,1.7534,1.7534,1.7532,1.7533,1.7534,1.7535,1.7464,1.7461,1.7458,0,0,0,0,0,0,0,0,0,0,0,0,0,1.7657,1.7709,1.7598,1.7589,1.7587,1.7536,1.7534,1.7533,1.7532,1.7533,1.7535,1.7536,1.7465,1.7461,1.7457,1.7409,0,0,1.7445,1.7444,0,0,0,0,0,0,0,0,1.766,1.7652,1.7591,1.7589,1.7588,1.7543,1.7548,1.7491,1.7532,1.7553,1.7535,1.7536,1.7488,1.7483,1.7468,1.7405,1.7402,1.7445,1.7443,1.7441,1.744,0,0,0,0,0,0,0,1.7664,1.7655,1.7573,1.759,1.7588,1.7586,1.7579,1.7537,1.7514,1.7551,1.7551,1.7544,1.7488,1.7472,1.7466,1.7401,1.7445,1.7442,1.7439,1.7438,1.7296,1.7294,0,0,0,0,0,0,1.767,1.7658,1.7575,1.7571,1.7628,1.7583,1.7576,1.7556,1.7515,1.751,1.7543,1.7544,1.7478,1.7471,1.7464,1.7404,1.7441,1.7437,1.7435,1.7297,1.7295,1.7294,0,0,0,0,0,0,1.7673,1.7663,1.7578,1.7615,1.7604,1.758,1.7558,1.7554,1.7538,1.7509,1.7504,1.7531,1.7479,1.7469,1.7423,1.7401,1.7435,1.7432,1.7299,1.7297,1.7295,1.7283,0,0,0,0,0,0,1.7676,1.7664,1.7646,1.7614,1.7602,1.7539,1.7556,1.7552,1.7532,1.7533,1.7497,1.7492,1.7479,1.7429,1.7419,1.7396,1.7429,1.73,1.7298,1.7295,1.7286,1.7281,1.7278,0,0,0,0,0,1.768,1.7644,1.7645,1.7635,1.758,1.7538,1.7531,1.7519,1.7531,1.7512,1.7493,1.7493,1.7406,1.7424,1.7413,1.7389,1.7302,1.7299,1.7296,1.7287,1.7282,1.7278,0,0,0,0,0,0,1.767,1.7639,1.764,1.7593,1.7569,1.7538,1.7514,1.7514,1.7483,1.7485,1.747,1.7461,1.7415,1.7397,1.7419,1.734,1.7355,1.7349,1.7352,1.7347,1.7343,1.7347,1.7425,0,0,0,0,0,1.7663,1.7635,1.7608,1.7569,1.7557,1.7538,1.7519,1.7513,1.7486,1.7474,1.7452,1.7424,1.739,1.7368,1.7335,1.7284,1.7275,1.7262,1.7258,1.7255,1.7249,1.722,1.7214,1.7284,1.7284,1.7284,0,0,1.7647,1.7627,1.7609,1.7567,1.7547,1.7515,1.7529,1.7495,1.7471,1.7468,1.7424,1.7407,1.7374,1.7325,1.7302,1.7309,1.7229,1.7251,1.7248,1.7245,1.7216,1.721,1.7204,1.7282,1.7282,1.7282,0,0,1.7602,1.7584,1.755,1.7531,1.7502,1.7489,1.7481,1.7451,1.744,1.7396,1.7394,1.7364,1.7307,1.7284,1.7265,1.7213,1.7211,1.7203,1.7181,1.7153,1.7147,1.7142,1.7123,1.7116,1.7198,1.7198,1.7198,0,1.7585,1.7539,1.7531,1.7498,1.7479,1.7479,1.7443,1.7424,1.7385,1.7371,1.738,1.7308,1.7286,1.7232,1.722,1.7205,1.7193,1.7206,1.7149,1.7144,1.7139,1.712,1.7113,1.7197,1.7198,1.7198,1.7198,0,1.7519,1.7488,1.7463,1.7428,1.7407,1.7372,1.7358,1.7336,1.7332,1.7319,1.7274,1.7248,1.721,1.7197,1.7192,1.7142,1.7147,1.7153,1.7167,1.7132,1.7114,1.7106,1.7196,1.7196,1.7197,1.7197,0,0,1.7463,1.7427,1.7417,1.7402,1.7371,1.7345,1.7311,1.7277,1.7258,1.7232,1.7201,1.7154,1.716,1.7138,1.713,1.7106,1.7066,1.7115,1.7114,1.7105,1.7008,1.7002,1.6994,1.7066,1.7064,1.7063,1.701,0,1.7413,1.7354,1.7347,1.7293,1.7263,1.7264,1.7233,1.721,1.7197,1.7169,1.7154,1.712,1.7131,1.7118,1.7094,1.7076,1.7046,1.708,1.7034,1.7033,1.7041,1.6985,1.6979,1.693,1.7003,1.7002,1.7001,0,1.7346,1.7321,1.7265,1.7239,1.7226,1.7199,1.7168,1.7141,1.7115,1.7107,1.7085,1.708,1.7043,1.7061,1.7008,1.7032,1.7013,1.7002,1.6999,1.6993,1.7013,1.6975,1.6914,1.6906,1.699,1.6991,1.6992,0,1.7309,1.7261,1.7221,1.7208,1.7177,1.7158,1.7144,1.7119,1.71,1.7072,1.7059,1.7026,1.7007,1.6981,1.6968,1.6983,1.6916,1.6933,1.6906,1.6906,1.689,1.689,1.6823,1.6881,1.6881,1.6881,1.6882,0,1.7253,1.7218,1.7204,1.718,1.7141,1.7133,1.7094,1.708,1.7058,1.703,1.7028,1.7001,1.6986,1.6956,1.6946,1.6903,1.6895,1.6886,1.6883,1.6885,1.6886,1.6871,1.6873,1.6879,1.688,1.688,1.6881,0,1.7203,1.7193,1.715,1.7126,1.7119,1.7091,1.7069,1.7045,1.7033,1.6997,1.6988,1.6969,1.6934,1.6919,1.6875,1.6868,1.6819,1.6819,1.6828,1.6827,1.68,1.6802,1.6719,1.6707,1.6775,1.6774,1.6774,0,1.7167,1.7141,1.7115,1.7097,1.7083,1.7054,1.7035,1.7026,1.7006,1.6975,1.6954,1.692,1.6892,1.6835,1.6816,1.6783,1.6781,1.6754,1.6776,1.6779,1.6779,1.678,1.6776,1.6749,1.6749,1.6748,1.6748,0,1.7103,1.71,1.7074,1.7046,1.7024,1.7001,1.6978,1.6963,1.6951,1.6928,1.6894,1.6872,1.6829,1.6794,1.676,1.6744,1.6743,1.6742,1.6734,1.6734,1.674,1.6735,1.6815,1.6743,1.6743,1.6744,1.6744,1.6744,1.7058,1.7035,1.7014,1.6984,1.6967,1.6947,1.6923,1.691,1.6882,1.6848,1.6844,1.6807,1.6782,1.6736,1.6719,1.6688,1.6695,1.6683,1.6679,1.6676,1.6674,1.6747,1.6682,1.6682,1.6682,1.6682,1.6682,0,1.6993,1.698,1.6954,1.6924,1.69,1.6906,1.6881,1.6861,1.6829,1.6807,1.678,1.6741,1.6708,1.6687,1.6654,1.6633,1.6632,1.6624,1.6625,1.6621,1.6671,1.6681,1.6626,1.6626,1.6626,1.6626,1.6626,1.6626,1.6956,1.6917,1.6912,1.6864,1.6851,1.6817,1.6802,1.6783,1.6765,1.6722,1.6696,1.6684,1.6662,1.6627,1.6597,1.6592,1.6578,1.657,1.6565,1.6611,1.6617,1.6622,1.6632,1.6568,1.6568,1.6517,1.6516,1.6516]}]]